Regional Weather Roundup
Issued by NWS Spokane, WA

Home | Current Version | Previous Version | Text Only | Print | Product List | Glossary On
Versions: 1 2 3 4 5 6 7 8 9 10 11 12 13 14 15 16 17 18 19 20 21 22 23 24 25 26 27 28 29 30 31 32 33 34 35 36 37 38 39 40 41 42 43 44 45 46 47 48 49 50
257
NZUS01 KOTX 120010
RWROTX
EASTERN WASHINGTON/NORTHERN IDAHO ROUNDUP
NATIONAL WEATHER SERVICE, SPOKANE WA
400 PM PST THU FEB 11 2016

Note: "fair" indicated few or no clouds below 12,000 feet with no
significant weather and/or obstructions to visibility.

...NORTHEAST WASHINGTON AND NORTHERN IDAHO PANHANDLE...

CITY           SKY/WX    TMP DP  RH WIND       PRES   REMARKS
SPOKANE INTL   LGT RAIN  42  37  82 NE9       30.25R
SPOKANE DOWNTO CLOUDY    44  38  79 CALM      30.27R
COEUR D ALENE  CLOUDY    45  36  70 NE13      30.24S
DEER PARK      CLOUDY    42  35  76 NE7       30.26F
SANDPOINT      CLOUDY    45  36  70 CALM      30.29R
BONNERS FERRY  CLOUDY    37  34  87 CALM      30.30R

...SOUTHEAST WASHINGTON AND SOUTHERN IDAHO PANHANDLE...

CITY           SKY/WX    TMP DP  RH WIND       PRES   REMARKS
WALLA WALLA    LGT RAIN  46  42  86 SE6       30.23F
PULLMAN/MOSCOW CLOUDY    51  36  56 SE8       30.23S
LEWISTON       CLOUDY    51  38  60 E6        30.22S
LOWELL           N/A     47  40  76 N5        30.27S

...COLUMBIA BASIN...

CITY           SKY/WX    TMP DP  RH WIND       PRES   REMARKS
EPHRATA        CLOUDY    43  36  76 NW10      30.26F
MOSES LAKE     CLOUDY    44  37  76 NW15      30.27S
TRI CITIES     LGT RAIN  49  43  80 NW5       30.27R
HERMISTON      CLOUDY    50  41  71 SE3       30.25R
PENDLETON      CLOUDY    46  42  86 N7        30.24R

...EAST SLOPES CASCADES...

CITY           SKY/WX    TMP DP  RH WIND       PRES   REMARKS
THE DALLES     CLOUDY    49  45  86 CALM      30.23F FOG
YAKIMA         LGT RAIN  48  43  82 W5        30.24S
ELLENSBURG     LGT RAIN  37  33  85 W6        30.25F FOG
WENATCHEE      LGT RAIN  41  34  76 CALM      30.28F
OMAK           CLOUDY    38  33  82 S3        30.30R

...SOUTHERN BRITISH COLUMBIA...

CITY           SKY/WX    TMP DP  RH WIND       PRES   REMARKS
PENTICTON      CLOUDY    39  36  87 NW2       30.31S
CASTLEGAR      CLOUDY    37  36  93 N3        30.30F
CRANBROOK      MOCLDY    43  30  61 W2        30.24S

...WESTERN MONTANA...

CITY           SKY/WX    TMP DP  RH WIND       PRES   REMARKS
MISSOULA       CLOUDY    46  31  55 SE5       30.25S

...NEIGHBORING CITIES...

CITY           SKY/WX    TMP DP  RH WIND       PRES   REMARKS
SEATTLE        LGT RAIN  52  48  86 CALM      30.10F
CALGARY        PTCLDY    41  30  65 E8        30.20R



USA.gov is the U.S. government's official web portal to all federal, state and local government web resources and services.